Location: Camaret
(48.2753°N, 4.5961°W)
Time: 04:06:39
(UTC+00:00)

Geosat - Pass Details

Date: 29 October 2020
Orbit: 763 x 766 km, 108.0° (Epoch: 01 December)

Event Time Altitude Azimuth Distance (km) Brightness Sun altitude
Exits shadow 19:33:07 78° 99° (E) 789 3.8 -25.3°
Maximum altitude 19:33:14 79° 118° (ESE) 787 3.8 -25.4°
Drops below altitude 10° 19:38:15 10° 206° (SSW) 2,299 6.6 -26.2°
Sets 19:40:31 0° 207° (SSW) 3,221 7.5 -26.6°
